Weather in Cockburn Town

Turks and Caicos Islands     21°28′21″N   71°08′23″W
temp.,
°C
wind,
m/s
gust,
m/s
humid.,
%
clouds,
%
prec.,
mm/h
press.,
hPa
HPBL,
m
27 january, wed
wed2701:00+24e9107718 0.0 1018868
04:00+24e89770 0.0 1017838
07:00+24ese89760 0.0 1019915
10:00+24ese89760 0.0 1020968
13:00+25ese78756 0.0 10181008
16:00+25ese67740 0.0 1016951
19:00+25e78770 0.0 1018866
22:00+24e77762 0.0 1019984
28 january, thu
thu2801:00+24ese77759 0.0 1018974
04:00+24e667432 0.1 10171054
07:00+24se667419 0.1 10171000
10:00+25se44720 0.0 1018921
13:00+25sse22663 0.1 1016846
16:00+25wnw11670 0.0 1015698
19:00+25nnw56700 0.0 10171049
22:00+24nnw56730 0.0 1017945
29 january, fri
fri2901:00+24nnw57754 0.1 1017981
04:00+23nne12138346 0.8 1015810
07:00+23nne10117831 0.9 1017751
10:00+22nne1112811 0.0 1019715
13:00+22nne1111781 0.0 1018759
16:00+22nne1112730 0.0 1017826
19:00+22ne1011730 0.0 1019957
22:00+22ne10117417 0.0 1020956
30 january, sat
sat3001:00+21ne1010758 0.0 1019978
04:00+22ne1011750 0.0 10181001
07:00+22ne10107225 0.0 10201119
10:00+22ene10107190 0.0 10211133
13:00+22ene10107152 0.0 10201137
16:00+22ene1010730 0.0 10191129
19:00+22ene10117314 0.0 10201128
22:00+22ene1011735 0.0 10211124
31 january, sun
sun3101:00+23e10117511 0.1 10191140
04:00+23e997481 0.1 10181059
07:00+23e9107478 0.2 10201146
10:00+23e101177100 0.1 10211068
13:00+23e9107567 0.2 1018855
16:00+24e1011784 0.0 1016984
19:00+24e10117752 0.1 10171039
22:00+24e10117867 0.0 1018956